FW7994 Weather Reports


time (UTC)temp
F
wind
direction
speed
knots
gust
knots
rain 1hr
in
rain 24hr
in
rain mn
in
humidity
%
barometer
mb
20260505200536 82 203 0.9 5.2 0.00 0.00 0.00 44 1012.7
20260505195516 81 0.0 1.7 0.00 0.00 0.00 40 1012.9
20260505194536 81 203 1.7 4.3 0.00 0.00 0.00 42 1013.0
20260505193536 80 203 1.7 6.1 0.00 0.00 0.00 43 1013.2
20260505192536 80 293 1.7 6.1 0.00 0.00 0.00 40 1013.4
20260505191516 81 203 0.9 3.5 0.00 0.00 0.00 42 1013.4
20260505190517 81 0.0 2.6 0.00 0.00 0.00 42 1013.4
20260505185516 80 203 0.9 5.2 0.00 0.00 0.00 45 1013.5
20260505184516 80 0.0 1.7 0.00 0.00 0.00 43 1013.5
20260505183516 80 225 0.9 3.5 0.00 0.00 0.00 42 1013.7
20260505182516 80 180 0.9 3.5 0.00 0.00 0.00 44 1014.0
20260505181516 80 203 0.9 4.3 0.00 0.00 0.00 40 1014.4
20260505180516 79 0.0 3.5 0.00 0.00 0.00 46 1014.4
20260505175516 79 180 2.6 6.1 0.00 0.00 0.00 46 1014.7
20260505174516 79 23 1.7 4.3 0.00 0.00 0.00 45 1014.7
20260505173516 79 180 0.9 4.3 0.00 0.00 0.00 44 1014.7
20260505172516 79 225 0.9 3.5 0.00 0.00 0.00 46 1014.6
20260505171516 79 203 1.7 5.2 0.00 0.00 0.00 45 1014.4
20260505170516 78 158 1.7 8.7 0.00 0.00 0.00 42 1014.5
20260505165516 77 225 0.9 4.3 0.00 0.00 0.00 46 1014.5
20260505164517 76 0.0 3.5 0.00 0.00 0.00 48 1014.8
20260505163516 76 158 0.9 7.0 0.00 0.00 0.00 49 1014.7
20260505162557 77 90 0.9 7.0 0.00 0.00 0.00 51 1015.0
20260505161516 77 225 0.9 5.2 0.00 0.00 0.00 47 1015.3
20260505160516 77 225 0.9 2.6 0.00 0.00 0.00 54 1015.3
20260505152516 74 45 0.9 4.3 0.00 0.00 0.00 57 1015.6
20260505151515 73 0.0 1.7 0.00 0.00 0.00 60 1015.5
20260505150515 72 203 0.9 4.3 0.00 0.00 0.00 63 1015.5
20260505140515 67 0.0 0.9 0.00 0.00 0.00 59 1015.1
20260505124515 57 0.0 1.7 0.00 0.00 0.00 13 1014.7
20260505123515 56 0.0 4.3 0.00 0.00 0.00 14 1014.6
20260505122535 54 0.0 0.0 0.00 0.00 0.00 17 1014.6
20260505121515 53 0.0 0.0 0.00 0.00 0.00 19 1014.5
20260505120515 52 0.0 0.0 0.00 0.00 0.00 22 1014.2
20260505115515 51 0.0 0.0 0.00 0.00 0.00 24 1014.2
20260505114542 50 0.0 0.0 0.00 0.00 0.00 26 1014.1
20260505113535 50 0.0 0.0 0.00 0.00 0.00 28 1014.1
20260505112515 50 0.0 0.0 0.00 0.00 0.00 29 1014.0
20260505111515 50 0.0 0.0 0.00 0.00 0.00 30 1014.0
20260505110515 50 0.0 0.0 0.00 0.00 0.00 31 1014.0
20260505101535 51 0.0 0.0 0.00 0.00 0.00 31 1013.7
20260505100515 51 0.0 0.0 0.00 0.00 0.00 31 1013.7
20260505095535 51 0.0 0.0 0.00 0.00 0.00 32 1013.6
20260505094515 52 0.0 0.0 0.00 0.00 0.00 34 1013.6
20260505093515 52 0.0 0.0 0.00 0.00 0.00 35 1013.4
20260505092515 52 0.0 0.0 0.00 0.00 0.00 35 1013.4
20260505091515 52 0.0 0.0 0.00 0.00 0.00 36 1013.5
20260505090515 52 0.0 0.0 0.00 0.00 0.00 37 1013.4
20260505085515 52 0.0 0.0 0.00 0.00 0.00 38 1013.5
20260505084515 53 0.0 0.0 0.00 0.00 0.00 38 1013.4
20260505083515 53 0.0 0.0 0.00 0.00 0.00 39 1013.3
20260505082517 53 0.0 0.0 0.00 0.00 0.00 40 1013.4
20260505081517 53 0.0 0.0 0.00 0.00 0.00 41 1013.4
20260505080537 53 0.0 0.0 0.00 0.00 0.00 42 1013.4
20260505075537 53 0.0 0.0 0.00 0.00 0.00 44 1013.4
20260505074517 53 0.0 0.0 0.00 0.00 0.00 45 1013.4
20260505073537 53 0.0 0.0 0.00 0.00 0.00 46 1013.4
20260505072517 54 0.0 0.0 0.00 0.00 0.00 47 1013.3
20260505071517 54 0.0 0.0 0.00 0.00 0.00 49 1013.2
20260505070537 54 0.0 0.0 0.00 0.00 0.00 50 1013.2
20260505065517 54 0.0 0.0 0.00 0.00 0.00 52 1013.2
20260505064537 54 0.0 0.0 0.00 0.00 0.00 54 1013.2
20260505063517 54 0.0 0.0 0.00 0.00 0.00 55 1013.2
20260505062536 55 0.0 0.0 0.00 0.00 0.00 55 1013.2
20260505061516 55 0.0 0.0 0.00 0.00 0.00 57 1013.2
20260505060516 55 0.0 0.0 0.00 0.00 0.00 57 1013.3
20260505055517 55 0.0 0.0 0.00 0.00 0.00 59 1013.3
20260505054516 56 0.0 0.0 0.00 0.00 0.00 61 1013.5
20260505053516 56 0.0 0.0 0.00 0.00 0.00 62 1013.6
20260505052517 56 0.0 0.0 0.00 0.00 0.00 63 1013.6
20260505051536 56 0.0 0.0 0.00 0.00 0.00 64 1013.6
20260505050516 56 0.0 0.0 0.00 0.00 0.00 65 1013.6
20260505041516 57 0.0 0.0 0.00 0.00 0.00 68 1013.7
20260505040516 57 0.0 0.0 0.00 0.00 0.00 68 1013.6
20260505035515 58 0.0 0.0 0.00 0.00 0.00 69 1013.5
20260505034515 58 0.0 0.0 0.00 0.00 0.00 69 1013.5
20260505033515 58 0.0 0.0 0.00 0.00 0.00 69 1013.7
20260505032515 59 0.0 0.0 0.00 0.00 0.00 69 1013.8
20260505031515 59 0.0 0.0 0.00 0.00 0.00 68 1013.8
20260505030535 60 0.0 0.0 0.00 0.00 0.00 68 1013.8
20260505025515 60 0.0 0.0 0.00 0.00 0.00 68 1013.7
20260505024515 60 0.0 0.0 0.00 0.00 0.00 68 1013.6
20260505023515 61 0.0 0.0 0.00 0.00 0.00 68 1013.6
20260505022515 61 0.0 0.0 0.00 0.00 0.00 68 1013.6
20260505021536 61 0.0 0.0 0.00 0.00 0.00 68 1013.6
20260505020518 61 0.0 0.0 0.00 0.00 0.00 68 1013.5
20260505015522 61 0.0 0.0 0.00 0.00 0.00 67 1013.5
20260505014515 61 0.0 0.0 0.00 0.00 0.00 67 1013.4
20260505013515 62 0.0 0.0 0.00 0.00 0.00 67 1013.3
20260505012515 62 0.0 0.0 0.00 0.00 0.00 66 1013.2
20260505011515 62 0.0 0.0 0.00 0.00 0.00 64 1013.2
20260505010515 62 0.0 0.0 0.00 0.00 0.00 63 1013.1
20260505005515 63 0.0 0.0 0.00 0.00 0.00 63 1013.0
20260505004535 64 0.0 0.0 0.00 0.00 0.00 61 1012.9
20260505003515 65 0.0 0.0 0.00 0.00 0.00 62 1012.9
20260505002516 66 0.0 0.0 0.00 0.00 0.00 57 1012.6
20260505001515 67 0.0 0.0 0.00 0.00 0.00 52 1012.6
20260505000515 68 0.0 0.0 0.00 0.00 0.00 55 1012.6
20260504235515 69 0.0 0.0 0.00 0.00 0.00 49 1012.5
20260504234515 70 0.0 0.0 0.00 0.00 0.00 48 1012.4
20260504233535 71 0.0 0.0 0.00 0.00 0.00 50 1012.4
20260504232535 71 0.0 0.0 0.00 0.00 0.00 51 1012.3
20260504231555 72 0.0 1.7 0.00 0.00 0.00 52 1012.3
20260504230515 72 0.0 3.5 0.00 0.00 0.00 52 1012.3
20260504225515 73 0.0 0.9 0.00 0.00 0.00 51 1012.3
20260504224517 74 0.0 0.0 0.00 0.00 0.00 52 1012.4
20260504223537 74 0.0 0.0 0.00 0.00 0.00 48 1012.5
20260504222517 75 0.0 0.0 0.00 0.00 0.00 49 1012.6
20260504221537 75 0.0 0.0 0.00 0.00 0.00 47 1012.5
20260504220517 76 0.0 1.7 0.00 0.00 0.00 45 1012.5
20260504215517 77 0.0 2.6 0.00 0.00 0.00 41 1012.5
20260504214517 79 0.0 0.0 0.00 0.00 0.00 41 1012.5
20260504213517 78 0.0 3.5 0.00 0.00 0.00 37 1012.5
20260504212517 79 0.0 1.7 0.00 0.00 0.00 40 1012.5
20260504211516 79 203 0.9 4.3 0.00 0.00 0.00 35 1012.5
20260504210517 79 225 0.9 5.2 0.00 0.00 0.00 32 1012.5
20260504205537 80 203 0.9 3.5 0.00 0.00 0.00 35 1012.6
20260504204517 81 0.0 1.7 0.00 0.00 0.00 38 1012.8
20260504203516 80 0.0 0.9 0.00 0.00 0.00 39 1012.8
20260504202516 80 225 0.9 1.7 0.00 0.00 0.00 40 1012.8
20260504201517 80 0.0 3.5 0.00 0.00 0.00 34 1012.9